Volver al catálogo

STARLINK-32921

ActivoComunicacionesVLEO
NORAD 62920·PAYLOAD·🇺🇸 United States

Lanzado Feb 8, 2025 desde Cape Canaveral Space Force Station

Loading…

Próximos Pases (próximas 24 horas)

TLE

ActualizadoSource: CelesTrak SupGP

Época: Sep 14, 2026, 20:41 UTC

1 62920C 25027P   26257.86229167  .00017679  00000+0  57913-3 0  2572
2 62920  42.9996 139.8145 0004252 224.2023  80.3021 15.30821969    18

Sigue STARLINK-32921 en tiempo real con AllMySat

Download on the App Store